THORAD AGENA D DEB, 4655

Orbit data source: Space-Track

THORAD AGENA D DEB, 4655 is space debris in SSO originally from a launch on Wed, 08 Apr 1970 UTC launched from the Air Force Western Test Range (AFWTR). Debris objects in space refer to the collection of defunct objects orbiting the Earth. Examples of debris include non-operational satellites, rocket bodies, and fragments generated from explosions, collisions, or faulty payload assembly.

Loading next visibility...
Identifier
4655, 1970-025AP
Orbit
SSO
Country
Flag of USUS
Related business
Manufacturer
Unknown
Mission
Spacecraft
Bus & Motor
Unknown
Mass
Unknown
Launch date (UTC)
1970-04-08 (56 years ago)
Launch vehicle
Unknown
Launch site
Air Force Western Test Range (AFWTR)
Object type
Payload
Rocket body
Debris
Shape & HBR
Unknown shape, 0.1 m
Radar Cross Section
Medium (>0.1 m² and <1 m²)

Expand to show TLE details & history
Last TLE update: 2 days ago

TLE from 2 days ago
0 THORAD AGENA D DEB
1 04655U 70025AP  26235.28246926  .00000079  00000-0  14533-3 0  9996
2 04655  99.9754 347.5144 0053719 337.9199  21.9632 13.69377088807009
Epoch: 2026-08-23T06:46Z
TLE epoch observation values (Epoch: 2026-08-23T06:46:45.344Z)
Latitude
0.00001°
Longitude
-85.75529°
Altitude
967.867 km
Speed
7.386 km/s
True Right ascension
23h 10m 03s
True Declination
0° 00' 00"
Sunlit
Object was in full shadow at epoch
Visualization orbit readout
Latitude
Unknown
Longitude
Unknown
Altitude
Unknown
Speed
Unknown
Apparent Right ascension
Unknown
Apparent Declination
Unknown
Sunlit
N/A
Visualization observer readout
Local Sidereal Time
04:07:40
Azimuth
Unknown
Elevation
Unknown
Doppler factor
Unknown
Orbital elements
Apogee altitude
1,038.728 km
Perigee altitude
959.468 km
Semi-major axis
7,377.235 km
Eccentricity
0.00537
Inclination
99.9754°
RAAN
347.5144°
Arg. of periapsis
337.9199°
True anomaly
22.19487°
Mean anomaly
21.9632°
Eccentric anomaly
22.07889°
Mean motion
3.42533 °/min
Orbital period
105.1 mins
BSTAR
0.00014533
Loading maneuver chart data...
Computing Atmospheric mass density...

Documentation

Showing up to 5 results
|